Change the Weather History Date:

Wednesday, May 22, 2013

  Actual Average Record
Temperature  
Mean Temperature 80 °F -  
Max Temperature 90 °F 87 °F 94 °F (1935)
Min Temperature 69 °F 67 °F 60 °F (1948)
Cooling Degree Days 14    
Growing Degree Days 30 (Base 50)    
Moisture  
Dew Point 72 °F    
Average Humidity 77    
Maximum Humidity 94    
Minimum Humidity 49    
Precipitation  
Precipitation 1.86 in - - ()
Sea Level Pressure  
Sea Level Pressure 29.94 in    
Wind  
Wind Speed 8 mph (SE)    
Max Wind Speed 21 mph    
Max Gust Speed 28 mph    
Visibility 9 miles    
Events Rain , Thunderstorm    
Averages and records for this station are not official NWS values.
T = Trace of Precipitation, MM = Missing Value Source: NWS Daily Summary

Daily Weather History Graph

Daily Weather History Graph

Search for Another Location

Airport or City:

Trip Planner

Search our weather history database for the weather conditions in past years. The results will help you decide how hot, cold, wet, or windy it might be!

Date:

Astronomy

May. 22, 2013 Rise Set
Actual Time 6:33 AM EDT 8:03 PM EDT
Civil Twilight 6:08 AM EDT 8:28 PM EDT
Nautical Twilight 5:37 AM EDT 8:58 PM EDT
Astronomical Twilight 5:06 AM EDT 9:30 PM EDT
Moon 5:36 PM EDT (5/22) 4:19 AM EDT (5/22)
Length of Visible Light 14h 20m
Length of Day
13h 30m
Waxing Gibbous, 91% of the Moon is Illuminated
May 22
Waxing Gibbous
May 25
Full
May 31
Last Quarter
Jun 8
New
Jun 16
First Quarter

Hourly Weather History & Observations

Time (EDT) Temp. Heat Index Dew Point Humidity Pressure Visibility Wind Dir Wind Speed Gust Speed Precip Events Conditions
12:58 AM 77.2 °F - 72.7 °F 86% 29.96 in 10.0 mi ESE 9.2 mph - N/A   Partly Cloudy
1:18 AM 78.8 °F - 73.4 °F 83% 29.93 in 10.0 mi ESE 9.2 mph - N/A   Mostly Cloudy
1:33 AM 77.0 °F - 73.4 °F 89% 29.93 in 10.0 mi ESE 8.1 mph - N/A   Scattered Clouds
1:38 AM 77.0 °F - 73.4 °F 89% 29.93 in 10.0 mi ESE 6.9 mph - N/A   Mostly Cloudy
1:48 AM 77.0 °F - 73.4 °F 89% 29.92 in 10.0 mi ESE 9.2 mph - N/A   Scattered Clouds
1:58 AM 77.9 °F - 73.0 °F 85% 29.93 in 10.0 mi ESE 8.1 mph - N/A   Scattered Clouds
2:18 AM 78.8 °F - 73.4 °F 83% 29.92 in 10.0 mi ESE 9.2 mph - N/A   Mostly Cloudy
2:33 AM 78.8 °F - 73.4 °F 83% 29.92 in 10.0 mi ESE 11.5 mph 17.3 mph N/A   Scattered Clouds
2:38 AM 77.0 °F - 71.6 °F 83% 29.92 in 10.0 mi SE 11.5 mph 19.6 mph N/A   Light Drizzle
2:45 AM 77.0 °F - 71.6 °F 83% 29.92 in 10.0 mi ESE 8.1 mph 19.6 mph N/A   Scattered Clouds
2:58 AM 76.6 °F - 73.0 °F 89% 29.93 in 10.0 mi SE 5.8 mph - 0.00 in   Partly Cloudy
3:58 AM 77.2 °F - 72.7 °F 86% 29.92 in 10.0 mi SE 5.8 mph - N/A   Clear
4:58 AM 76.6 °F - 73.4 °F 90% 29.93 in 10.0 mi ESE 4.6 mph - N/A   Scattered Clouds
5:01 AM 77.0 °F - 73.4 °F 89% 29.92 in 10.0 mi ESE 4.6 mph - N/A Thunderstorm Thunderstorm
5:06 AM 77.0 °F - 71.6 °F 83% 29.91 in 10.0 mi ESE 11.5 mph 21.9 mph N/A Thunderstorm Thunderstorm
5:23 AM 75.2 °F - 68.0 °F 78% 29.91 in 10.0 mi Variable 5.8 mph - N/A Rain , Thunderstorm Light Thunderstorms and Rain
5:28 AM 73.4 °F - 69.8 °F 88% 29.92 in 3.0 mi SE 19.6 mph 27.6 mph N/A Rain , Thunderstorm Thunderstorms and Rain
5:33 AM 73.4 °F - 71.6 °F 94% 29.93 in 1.5 mi SSE 16.1 mph 27.6 mph N/A Rain , Thunderstorm Heavy Thunderstorms and Rain
5:44 AM 71.6 °F - 69.8 °F 94% 29.93 in 1.5 mi ESE 10.4 mph 25.3 mph N/A Rain , Thunderstorm Heavy Thunderstorms and Rain
5:51 AM 71.6 °F - 69.8 °F 94% 29.93 in 1.5 mi SE 8.1 mph - N/A Rain , Thunderstorm Light Thunderstorms and Rain
5:55 AM 71.6 °F - 68.0 °F 88% 29.93 in 3.0 mi SE 8.1 mph - N/A Rain , Thunderstorm Light Thunderstorms and Rain
5:58 AM 71.6 °F - 68.0 °F 88% 29.94 in 6.0 mi SE 9.2 mph - 1.71 in Rain , Thunderstorm Light Thunderstorms and Rain
6:04 AM 69.8 °F - 66.2 °F 88% 29.92 in 10.0 mi Variable 4.6 mph - N/A Rain , Thunderstorm Light Thunderstorms and Rain
6:12 AM 71.6 °F - 66.2 °F 83% 29.92 in 10.0 mi SSE 9.2 mph - N/A Rain , Thunderstorm Light Thunderstorms and Rain
6:16 AM 71.6 °F - 68.0 °F 88% 29.92 in 10.0 mi South 9.2 mph - N/A Thunderstorm Thunderstorm
6:23 AM 73.4 °F - 69.8 °F 88% 29.92 in 10.0 mi SSE 9.2 mph - N/A   Scattered Clouds
6:58 AM 72.5 °F - 69.1 °F 89% 29.94 in 10.0 mi SE 5.8 mph - 0.01 in   Clear
7:58 AM 73.6 °F - 70.7 °F 91% 29.94 in 10.0 mi West 1.2 mph - N/A   Clear
8:58 AM 78.8 °F - 74.3 °F 86% 29.95 in 10.0 mi South 3.5 mph - N/A   Clear
9:58 AM 80.6 °F 85.4 °F 73.4 °F 79% 29.97 in 10.0 mi SW 5.8 mph - N/A   Mostly Cloudy
10:03 AM 80.6 °F 85.4 °F 73.4 °F 79% 29.96 in 10.0 mi SW 4.6 mph - N/A   Scattered Clouds
10:27 AM 80.6 °F 86.2 °F 75.2 °F 84% 29.96 in 10.0 mi South 9.2 mph - N/A Rain Light Rain
10:37 AM 80.6 °F 85.4 °F 73.4 °F 79% 29.96 in 10.0 mi South 5.8 mph - N/A   Scattered Clouds
10:51 AM 82.4 °F 88.2 °F 73.4 °F 74% 29.96 in 10.0 mi SW 9.2 mph - N/A Rain , Thunderstorm Light Rain
10:58 AM 82.4 °F 89.0 °F 74.5 °F 77% 29.97 in 10.0 mi SW 6.9 mph - 0.01 in Rain , Thunderstorm Light Rain
11:05 AM 82.4 °F 88.2 °F 73.4 °F 74% 29.96 in 10.0 mi WSW 5.8 mph - N/A Thunderstorm Scattered Clouds
11:15 AM 82.4 °F 89.5 °F 75.2 °F 79% 29.96 in 10.0 mi SW 10.4 mph - N/A Rain Light Rain
11:19 AM 80.6 °F 85.4 °F 73.4 °F 79% 29.96 in 5.0 mi South 20.7 mph 25.3 mph N/A Rain Light Rain
11:24 AM 77.0 °F - 69.8 °F 78% 29.96 in 2.5 mi SSE 11.5 mph 25.3 mph N/A Rain Light Rain
11:29 AM 75.2 °F - 68.0 °F 78% 29.96 in 3.0 mi SSE 8.1 mph 25.3 mph N/A Rain , Thunderstorm Light Rain
11:30 AM 75.2 °F - 68.0 °F 78% 29.96 in 7.0 mi SE 6.9 mph - N/A Rain , Thunderstorm Light Thunderstorms and Rain
11:34 AM 75.2 °F - 68.0 °F 78% 29.96 in 10.0 mi ESE 4.6 mph - N/A Thunderstorm Thunderstorm
11:45 AM 77.0 °F - 69.8 °F 78% 29.96 in 10.0 mi Calm Calm - N/A Thunderstorm Partly Cloudy
11:58 AM 77.7 °F - 69.8 °F 76% 29.97 in 10.0 mi Calm Calm - 0.13 in   Clear
12:16 PM 82.4 °F 88.2 °F 73.4 °F 74% 29.96 in 10.0 mi East 4.6 mph - N/A   Light Drizzle
12:18 PM 82.4 °F 88.2 °F 73.4 °F 74% 29.96 in 10.0 mi East 5.8 mph - N/A   Clear
12:20 PM 82.4 °F 89.5 °F 75.2 °F 79% 29.95 in 10.0 mi ESE 6.9 mph - N/A   Light Drizzle
12:26 PM 84.2 °F 92.3 °F 75.2 °F 74% 29.95 in 10.0 mi Variable 4.6 mph - N/A   Clear
12:52 PM 86.0 °F 95.1 °F 75.2 °F 70% 29.94 in 10.0 mi SSW 10.4 mph - N/A   Light Drizzle
12:58 PM 84.9 °F 92.5 °F 74.1 °F 70% 29.95 in 10.0 mi SSW 10.4 mph - 0.00 in Rain Light Rain
1:05 PM 86.0 °F 93.4 °F 73.4 °F 66% 29.94 in 10.0 mi SW 10.4 mph - N/A   Partly Cloudy
1:21 PM 86.0 °F 93.4 °F 73.4 °F 66% 29.93 in 10.0 mi SW 11.5 mph - N/A   Light Drizzle
1:27 PM 87.8 °F 95.6 °F 73.4 °F 62% 29.93 in 10.0 mi SW 12.7 mph - N/A   Scattered Clouds
1:49 PM 87.8 °F 95.6 °F 73.4 °F 62% 29.92 in 10.0 mi West 15.0 mph - N/A   Mostly Cloudy
1:51 PM 87.8 °F 93.8 °F 71.6 °F 58% 29.92 in 10.0 mi WNW 15.0 mph - N/A   Mostly Cloudy
1:53 PM 87.8 °F 93.8 °F 71.6 °F 58% 29.92 in 10.0 mi NW 12.7 mph - N/A   Mostly Cloudy
1:54 PM 87.8 °F 93.8 °F 71.6 °F 58% 29.92 in 10.0 mi NNW 11.5 mph - N/A   Mostly Cloudy
1:58 PM 87.8 °F 93.8 °F 71.6 °F 58% 29.93 in 10.0 mi NE 8.1 mph - 0.00 in   Scattered Clouds
2:58 PM 84.6 °F 91.7 °F 73.9 °F 70% 29.93 in 10.0 mi ENE 4.6 mph - N/A Thunderstorm Mostly Cloudy
3:58 PM 90.7 °F 95.9 °F 69.4 °F 50% 29.90 in 10.0 mi WSW 12.7 mph - N/A Thunderstorm Partly Cloudy
4:10 PM 89.6 °F 93.4 °F 68.0 °F 49% 29.89 in 10.0 mi West 13.8 mph - N/A Thunderstorm Partly Cloudy
4:58 PM 83.7 °F 88.6 °F 71.2 °F 66% 29.91 in 10.0 mi NE 19.6 mph - N/A Thunderstorm Partly Cloudy
5:58 PM 83.1 °F 87.6 °F 70.5 °F 66% 29.92 in 10.0 mi East 6.9 mph - N/A   Clear
6:12 PM 84.2 °F 89.6 °F 71.6 °F 66% 29.91 in 10.0 mi East 8.1 mph - N/A Rain Light Rain
6:27 PM 84.2 °F 88.4 °F 69.8 °F 62% 29.92 in 10.0 mi East 6.9 mph - N/A   Clear
6:36 PM 84.2 °F 88.4 °F 69.8 °F 62% 29.92 in 10.0 mi ESE 4.6 mph - N/A   Light Drizzle
6:41 PM 84.2 °F 89.6 °F 71.6 °F 66% 29.92 in 10.0 mi SE 5.8 mph - N/A   Clear
6:58 PM 84.2 °F 90.3 °F 72.7 °F 68% 29.93 in 10.0 mi SE 2.3 mph - 0.00 in   Clear
7:14 PM 84.2 °F 90.9 °F 73.4 °F 70% 29.92 in 10.0 mi East 3.5 mph - N/A Rain Light Rain
7:24 PM 84.2 °F 90.9 °F 73.4 °F 70% 29.92 in 10.0 mi East 3.5 mph - N/A Thunderstorm Partly Cloudy
7:58 PM 81.5 °F 87.6 °F 74.8 °F 80% 29.94 in 10.0 mi SE 8.1 mph - 0.00 in Thunderstorm Scattered Clouds
8:58 PM 78.6 °F - 69.4 °F 73% 29.94 in 10.0 mi SSE 6.9 mph - N/A   Clear
9:58 PM 77.0 °F - 71.4 °F 83% 29.96 in 10.0 mi SSE 6.9 mph - N/A   Clear
10:58 PM 77.7 °F - 72.9 °F 85% 29.98 in 10.0 mi SSE 8.1 mph - N/A   Clear
11:58 PM 76.8 °F - 70.9 °F 82% 29.98 in 10.0 mi SE 3.5 mph - N/A   Partly Cloudy